2023-001V (55028 NORAD) Tracking and Keplerian Element Data

This shows tracking and keplerian element data for the satellite.

Feedback or suggestion? Click here.




ElementValue
Catalog55028
Name2023-001V
Epoch Orbit169
Epoch Day13.78623638
Epoch Year2023
RAAN75.728
Inclination97.502
Eccentricity0.0012616
Argument of Perigee173.0048
Mean Anonmoly187.1361
Mean Motion15.1248444
Decay Rate0.00010991
L11 55028U 23001V 23013.78623638 .00010991 00000+0 63364-3 0 9992
L22 55028 97.5020 75.7280 0012616 173.0048 187.1361 15.12484440 1699



Live tracking and technical data element details for 2023-001V (NORAD 55028). 2023-001V can be tracked NOW for your location showing map with azimuth and elevation plus other details from your city location.







IsCatalogInMostPopularTable: catalog: 55028, numindb: 3
Update: records affected: 1



GetName: 55028 2023-001V

Hit Count: updated at: Tue, 07 Feb 2023 14:59:28 GMT